ELY737 LLBG-ENBR

Flight info

Callsign ELY737
Flight time N/A
Altitude 34000
Route SUVAS N128 TEZAK L324 SAFTA DCT MAROS DCT EVENO DCT BENEM UN127 LMO DCT ATFIR DCT LOMOS DCT NARKA/N0463F360 DCT KEKED DCT KELEL DCT POKEN DCT PESUR
Aircraft B738/M-SDE2E3FGHIRWXY/LB1

Departure

Time N/A
Airport Ben Gurion International Airport (LLBG)

Arrival

Time 2026-05-01 10:20
Airport Bergen Airport, Flesland (ENBR)
Time Latitude Longitude Altitude Speed Heading
2026-05-01 09:52 59.32522 8.17466 36286 ft 441 kts 314°
2026-05-01 09:52 59.34866 8.13449 36284 ft 442 kts 314°
2026-05-01 09:52 59.39488 8.05636 36277 ft 440 kts 315°
2026-05-01 09:53 59.44125 7.97845 36271 ft 439 kts 315°
2026-05-01 09:53 59.48765 7.90038 36283 ft 438 kts 315°
2026-05-01 09:54 59.53388 7.82223 36291 ft 437 kts 314°
2026-05-01 09:54 59.57989 7.74415 36321 ft 436 kts 314°
2026-05-01 09:55 59.62614 7.66531 35697 ft 442 kts 314°
2026-05-01 09:55 59.64855 7.62704 35087 ft 439 kts 314°
2026-05-01 09:55 59.67129 7.58816 34469 ft 438 kts 314°
2026-05-01 09:56 59.69437 7.54861 33687 ft 438 kts 314°
2026-05-01 09:56 59.71740 7.50904 32921 ft 437 kts 314°
2026-05-01 09:56 59.74031 7.46960 32186 ft 436 kts 314°
2026-05-01 09:56 59.76282 7.43077 31431 ft 435 kts 314°
2026-05-01 09:57 59.78569 7.39126 30658 ft 435 kts 314°
2026-05-01 09:57 59.80853 7.35173 29769 ft 435 kts 314°
2026-05-01 09:57 59.83129 7.31225 28890 ft 434 kts 314°
2026-05-01 09:57 59.85400 7.27281 27982 ft 433 kts 314°
2026-05-01 09:58 59.87639 7.23382 27087 ft 432 kts 313°
2026-05-01 09:58 59.89899 7.19439 26339 ft 431 kts 313°
2026-05-01 09:58 59.92187 7.15433 25695 ft 443 kts 313°
2026-05-01 09:58 59.94521 7.11338 25003 ft 448 kts 314°
2026-05-01 09:59 59.96842 7.07273 24309 ft 441 kts 314°
2026-05-01 09:59 59.99130 7.03265 23606 ft 434 kts 313°
2026-05-01 09:59 60.01383 6.99307 22837 ft 427 kts 313°
2026-05-01 09:59 60.03594 6.95413 22169 ft 419 kts 313°
2026-05-01 10:00 60.05733 6.91635 21514 ft 412 kts 313°
2026-05-01 10:00 60.07866 6.87858 20876 ft 406 kts 312°
2026-05-01 10:00 60.09965 6.84131 20230 ft 401 kts 312°
2026-05-01 10:00 60.12035 6.80448 19609 ft 396 kts 312°
2026-05-01 10:01 60.14081 6.76802 18998 ft 391 kts 312°
2026-05-01 10:01 60.16111 6.73179 18346 ft 390 kts 311°
2026-05-01 10:01 60.18129 6.69570 17666 ft 386 kts 311°
2026-05-01 10:01 60.20145 6.65961 17031 ft 390 kts 312°
2026-05-01 10:02 60.22192 6.62286 16415 ft 396 kts 312°
2026-05-01 10:02 60.24151 6.58546 15746 ft 386 kts 304°
2026-05-01 10:02 60.25503 6.54063 15148 ft 367 kts 289°
2026-05-01 10:02 60.26569 6.49472 14571 ft 359 kts 290°
2026-05-01 10:03 60.27649 6.44959 13970 ft 355 kts 290°
2026-05-01 10:03 60.28725 6.40514 13340 ft 351 kts 290°
2026-05-01 10:03 60.29794 6.36120 12752 ft 346 kts 290°
2026-05-01 10:03 60.30846 6.31800 12185 ft 342 kts 290°
2026-05-01 10:04 60.31896 6.27481 11643 ft 342 kts 290°
2026-05-01 10:04 60.32932 6.23223 11326 ft 334 kts 289°
2026-05-01 10:04 60.33949 6.19033 11181 ft 332 kts 289°
2026-05-01 10:04 60.34996 6.14952 10976 ft 328 kts 295°
2026-05-01 10:05 60.36354 6.11100 10760 ft 352 kts 300°
2026-05-01 10:05 60.37858 6.07118 10524 ft 358 kts 301°
2026-05-01 10:05 60.39367 6.03169 10273 ft 350 kts 301°
2026-05-01 10:05 60.40831 5.99326 10007 ft 339 kts 300°
2026-05-01 10:06 60.42236 5.95600 9733 ft 326 kts 299°
2026-05-01 10:06 60.43582 5.92003 9474 ft 315 kts 300°
2026-05-01 10:06 60.44892 5.88498 9194 ft 307 kts 299°
2026-05-01 10:06 60.46152 5.85083 8933 ft 298 kts 299°
2026-05-01 10:07 60.47373 5.81758 8656 ft 290 kts 298°
2026-05-01 10:07 60.48547 5.78554 8420 ft 283 kts 298°
2026-05-01 10:07 60.49708 5.75380 8152 ft 278 kts 298°
2026-05-01 10:07 60.50856 5.72235 7939 ft 276 kts 298°
2026-05-01 10:08 60.53141 5.65996 7416 ft 274 kts 298°
2026-05-01 10:08 60.54269 5.62889 7159 ft 272 kts 298°
2026-05-01 10:08 60.55389 5.59818 6911 ft 268 kts 298°
2026-05-01 10:09 60.56495 5.56781 6670 ft 265 kts 298°
2026-05-01 10:09 60.57582 5.53789 6373 ft 262 kts 299°
2026-05-01 10:09 60.58634 5.50885 6002 ft 250 kts 300°
2026-05-01 10:09 60.59663 5.48075 5864 ft 250 kts 298°
2026-05-01 10:10 60.60704 5.45176 5619 ft 257 kts 299°
2026-05-01 10:10 60.61779 5.42197 5406 ft 263 kts 298°
2026-05-01 10:10 60.63940 5.36237 4890 ft 258 kts 298°
2026-05-01 10:11 60.64890 5.33208 4617 ft 248 kts 282°
2026-05-01 10:11 60.65046 5.29868 4361 ft 233 kts 253°
2026-05-01 10:11 60.64432 5.26921 4099 ft 224 kts 229°
2026-05-01 10:11 60.63326 5.24744 3877 ft 220 kts 211°
2026-05-01 10:12 60.61926 5.23513 3592 ft 220 kts 196°
2026-05-01 10:12 60.60946 5.22988 3447 ft 217 kts 194°
2026-05-01 10:12 60.57581 5.21209 3058 ft 209 kts 194°
2026-05-01 10:13 60.56202 5.20478 2969 ft 200 kts 195°
2026-05-01 10:13 60.54918 5.19791 2958 ft 183 kts 195°
2026-05-01 10:13 60.53721 5.19101 2982 ft 179 kts 195°
2026-05-01 10:14 60.51261 5.17788 2825 ft 182 kts 193°
2026-05-01 10:14 60.50057 5.17151 2709 ft 176 kts 193°
2026-05-01 10:14 60.48917 5.16542 2670 ft 167 kts 193°
2026-05-01 10:14 60.47816 5.16005 2602 ft 161 kts 187°
2026-05-01 10:15 60.46649 5.15753 2110 ft 176 kts 185°
2026-05-01 10:15 60.45394 5.15773 1814 ft 183 kts 173°
2026-05-01 10:15 60.44154 5.16195 1720 ft 179 kts 169°
2026-05-01 10:15 60.42973 5.16863 1645 ft 175 kts 163°
2026-05-01 10:16 60.41774 5.17388 1496 ft 176 kts 172°
2026-05-01 10:16 60.40613 5.17779 1595 ft 168 kts 171°
2026-05-01 10:16 60.38504 5.18492 1658 ft 143 kts 171°
2026-05-01 10:17 60.37659 5.18848 1482 ft 130 kts 170°
2026-05-01 10:17 60.35959 5.19605 1278 ft 123 kts 171°
2026-05-01 10:17 60.35103 5.19913 1111 ft 128 kts 172°
2026-05-01 10:18 60.33284 5.20421 723 ft 137 kts 166°
2026-05-01 10:18 60.32341 5.20770 545 ft 137 kts 168°
2026-05-01 10:18 60.31408 5.21097 362 ft 134 kts 170°
2026-05-01 10:19 60.30548 5.21413 245 ft 123 kts 168°
2026-05-01 10:19 60.29754 5.21678 153 ft 105 kts 170°
2026-05-01 10:19 60.29222 5.21853 157 ft 50 kts 171°
2026-05-01 10:20 60.28629 5.22053 161 ft 38 kts 170°
2026-05-01 10:20 60.28387 5.22136 158 ft 30 kts 169°
2026-05-01 10:20 60.28283 5.22245 155 ft 16 kts 111°
2026-05-01 10:20 60.28277 5.22319 153 ft 0 kts 90°
2026-05-01 10:21 60.28276 5.22334 153 ft 2 kts 91°
2026-05-01 10:21 60.28294 5.22445 155 ft 8 kts 47°
2026-05-01 10:21 60.28342 5.22470 158 ft 7 kts 357°
2026-05-01 10:22 60.28439 5.22442 162 ft 7 kts 350°
2026-05-01 10:22 60.28649 5.22376 164 ft 14 kts
2026-05-01 10:23 60.28693 5.22461 164 ft 9 kts 60°
2026-05-01 10:23 60.28758 5.22652 170 ft 8 kts 36°
2026-05-01 10:23 60.28799 5.22690 172 ft 3 kts 14°
2026-05-01 10:24 60.28807 5.22693 172 ft 0 kts 12°